Home > Weather > Lillestrøm > Past weeks

Flag for Norway Weather for the Past 2 Weeks in Lillestrøm, Norway

Now
40 °F

Light rain. Low clouds.


Feels Like: 36 °F
Forecast: 33 / 36 °F
Wind: 6 mph from South

Location: Oslo-Blindern

Current Time: Feb 6, 2016 at 10:48:00 AM

Latest Report: Feb 6, 2016 at 10:00 AM


Visibility: 16 mi

Pressure: 29.41 "Hg

Humidity: 99%

Dew point: 40 °F

Location of LillestrømLocation

Historic Weather in Lillestrøm — Graph

°F

Lillestrøm Temperature Yesterday

Maximum temperature yesterday: 33 °F (at 3:00 PM)
Minimum temperature yesterday: 26 °F (at 6:00 AM)
Average temperature yesterday: 30 °F

High & Low Weather Summary for the Past Weeks

 TemperatureHumidityPressure
High43 °F (Jan 29, 5:00 PM)100% (Jan 25, 8:00 PM)30.35 "Hg (Jan 25, 8:00 PM)
Low12 °F (Jan 22, 9:00 AM)39% (Feb 4, 3:00 PM)28.76 "Hg (Feb 2, 7:00 PM)
Average33 °F85%29.56 "Hg
* Reported Jan 22 9:00 AM — Feb 6 9:00 AM, Lillestrøm, Weather by CustomWeather, © 2016

Note: Actual official high and low records may vary slightly from our data, if they occured in-between our weather recording intervals... More about our weather records

Advertising

Lillestrøm Weather History for the Previous 24 Hours

 ConditionsComfort  
Time TempWeatherWind HumidityBarometerVisibility
9:00 AM
Sat, Feb 6
40 °FChilly.5 mph100%29.44 "HgN/A
8:00 AM38 °FChilly.2 mph99%29.44 "HgN/A
7:00 AM37 °FFog.2 mph99%29.47 "Hg1 mi
6:00 AM35 °FChilly.1 mph99%29.50 "HgN/A
5:00 AM35 °FChilly.2 mph99%29.56 "HgN/A
4:00 AM34 °FDrizzle. Dense fog.No wind98%29.60 "Hg1 mi
3:00 AM34 °FChilly.1 mph98%29.63 "HgN/A
2:00 AM33 °FChilly.1 mph98%29.67 "HgN/A
1:00 AM33 °FDrizzle. Dense fog.2 mph98%29.69 "Hg2 mi
12:00 AM32 °FChilly.2 mph98%29.72 "HgN/A
11:00 PM
Fri, Feb 5
32 °FChilly.2 mph97%29.75 "HgN/A
10:00 PM31 °FSnow. Ice fog.1 mph97%29.77 "Hg1 mi
9:00 PM31 °FChilly.1 mph97%29.79 "HgN/A
8:00 PM31 °FChilly.1 mph96%29.81 "HgN/A
7:00 PM30 °FSnow. Ice fog.1 mph96%29.83 "Hg1 mi
6:00 PM29 °FChilly.1 mph96%29.84 "HgN/A
5:00 PM29 °FChilly.2 mph92%29.86 "HgN/A
4:00 PM33 °FLight snow. Overcast.2 mph64%29.86 "Hg9 mi
3:00 PM33 °FChilly.1 mph60%29.87 "HgN/A
2:00 PM33 °FChilly.1 mph62%29.89 "HgN/A
1:00 PM33 °FOvercast.1 mph61%29.90 "Hg43 mi
12:00 PM33 °FChilly.1 mph62%29.91 "HgN/A
11:00 AM30 °FChilly.1 mph67%29.92 "HgN/A
10:00 AM28 °FOvercast.1 mph73%29.92 "Hg47 mi
Weather by CustomWeather, © 2016

See weather overviewHow to use our weather pages